TOURFACTS.DK  
Stats and Facts from Tour de France.

Tour de France 2019 starts in 320 days
  Riders   Stages   Teams   Summits   Yearly  


 
Search by year

After 2018 - Stage 21:
 15000 starters.
  5165 different riders.
  638 teams.
  2253 stages.
  456 restdays.
  442940.60 km.
  5684 abandonnees.


Top 3
GC
Geraint Thomas83:17:13
Tom Dumoulin83:19:04
Christopher Froome83:19:37
Climb
Julian Alaphilippe170 pt.
Warren Barguil91 pt.
Rafal Majka76 pt.
Sprint
Peter Sagan477 pt.
Alexander Kristoff246 pt.
Arnaud Démare203 pt.
Youth
Pierre-Roger Latou..83:39:26
Egan Bernal83:45:05
Guillaume Martin84:01:31
Facts from Tour de France 2016
  |   Stages.  |   Stage winners.  |   Days in yellow  |   Average speed.  |   Route.  |   Teams.  |   All riders.  |   Rookies.  |  

  |   Withdrawls.  |   GC.  |   Polka  |   Green  |   White  |   Summits. (In tour)  |   Miscellaneous.  |  

Stage 7 on 08 - 07 - 2016
         Owning:    Greg Van Avermaet      Thomas De Gendt      Mark Cavendish      Adam Yates  

Pick a stage:  1 2 3 4 5 6 7 8 9 10 11 12 13 14 15 16 17 18 19 20 21
  L'Isle-JourdainLac de Payolle | Dist: 162.00 km.
Cat: 4Côte de CapvernITAVincenzo Nibali1 points 
Cat: 1Col d'AspinENGStephen Cummings10 points 

Average speed for all riders in stage:  40,488 km./hr.
    Place:Name:Team:Time:Km/h:
1
ENGStephen CummingsZAFDimension Data03:48:09  +  00:00:00=42,604 
2
RSADaryl ImpeyAUSORICA BikeExchange03:49:13  +  00:01:04=42,405 
3
ESPDaniel NavarroFRACofidis – Solutions Crédits03:49:13  +  00:01:04=42,405 
44 ITAVincenzo NibaliKAZAstana Pro Team03:50:07  +  00:01:58=42,239 
55 BELGreg Van AvermaetUSABMC Racing Team03:51:06  +  00:02:57=42,060 
66 ESPLuis Angel MateFRACofidis – Solutions Crédits03:51:46  +  00:03:37=41,939 
77 WALGeraint ThomasGBRSky Procycling03:51:46  +  00:03:37=41,939 
88 NEDWout PoelsGBRSky Procycling03:51:46  +  00:03:37=41,939 
99 ESPGorka Izaguirre InsaustiESPMovistar Team03:51:46  +  00:03:37=41,939 
1010 ESPAlejandro ValverdeESPMovistar Team03:51:46  +  00:03:37=41,939 
1111 KENChristopher FroomeGBRSky Procycling03:51:46  +  00:03:37=41,939 
1212 CZERoman KreuzigerRUSTinkoff03:51:46  +  00:03:37=41,939 
1313 AUSRichie PorteUSABMC Racing Team03:51:46  +  00:03:37=41,939 
1414 FRAJulian AlaphilippeBELEtixx - Quick Step03:51:46  +  00:03:37=41,939 
1515 ENGDaniel MartinBELEtixx - Quick Step03:51:46  +  00:03:37=41,939 
1616 FRARomain BardetFRAAg2r La Mondiale03:51:46  +  00:03:37=41,939 
1717 FRAPierre RollandUSATeam Cannondale Drapac03:51:46  +  00:03:37=41,939 
1818 COLNairo QuintanaESPMovistar Team03:51:46  +  00:03:37=41,939 
1919 NEDStef ClementCHEIAM Cycling03:51:46  +  00:03:37=41,939 
2020 NEDBauke MollemaUSATrek - Segafredo03:51:46  +  00:03:37=41,939 
2121 GEREmanuel BuchmannDEUBora-Argon 1803:51:46  +  00:03:37=41,939 
2222 NEDWilco KeldermanNLDTeam Lotto NL - Jumbo03:51:46  +  00:03:37=41,939 
2323 RSALouis MeintjesITALampre-Merida03:51:46  +  00:03:37=41,939 
2424 USATejay Van GarderenUSABMC Racing Team03:51:46  +  00:03:37=41,939 
2525 ESPJoaquim RodriguezRUSTeam Katusha03:51:46  +  00:03:37=41,939 
2626 ITADomenico PozzovivoFRAAg2r La Mondiale03:51:46  +  00:03:37=41,939 
2727 ITAFabio AruKAZAstana Pro Team03:51:46  +  00:03:37=41,939 
2828 ESPMikel NieveGBRSky Procycling03:51:46  +  00:03:37=41,939 
2929 COLSergio Luis HenaoGBRSky Procycling03:51:46  +  00:03:37=41,939 
3030 ESPAlberto ContadorRUSTinkoff03:51:46  +  00:03:37=41,939 
3131 SUISébastien ReichenbachFRAFDJ03:51:46  +  00:03:37=41,939 
3232 SUIJakob FuglsangKAZAstana Pro Team03:51:46  +  00:03:37=41,939 
3333 FRAWarren BarguilDEUTeam Giant Alpecin03:51:46  +  00:03:37=41,939 
3434 BELJurgen Van Den BroeckRUSTeam Katusha03:51:46  +  00:03:37=41,939 
3535 USAAlex HowesUSATeam Cannondale Drapac03:52:18  +  00:04:09=41,842 
3636 LUXFränk SchleckUSATrek - Segafredo03:52:09  +  00:04:00=41,869 
3737 ARGEduardo SepulvedaFRAFortuneo - Vital Concept03:52:11  +  00:04:02=41,863 
3838 ESPHaimar ZubeldiaUSATrek - Segafredo03:52:18  +  00:04:09=41,842 
3939 ITADamiano CarusoUSABMC Racing Team03:52:11  +  00:04:02=41,863 
4040 SUIMathias FrankCHEIAM Cycling03:52:11  +  00:04:02=41,863 
4141 COLJarlinson Pantano GomezCHEIAM Cycling03:52:09  +  00:04:00=41,869 
4242 FRAAlexis VuillermozFRAAg2r La Mondiale03:52:38  +  00:04:29=41,782 
4343 FRAFabrice JeandesbozFRADirect Energie03:52:36  +  00:04:27=41,788 
4444 ESPDaniel MorenoESPMovistar Team03:52:38  +  00:04:29=41,782 
4545 NZLGeorge BennettNLDTeam Lotto NL - Jumbo03:52:26  +  00:04:17=41,818 
4646 RUSIlnur ZakarinRUSTeam Katusha03:52:43  +  00:04:34=41,768 
4747 URSTanel KangertKAZAstana Pro Team03:52:56  +  00:04:47=41,729 
4848 GERPaul VossDEUBora-Argon 1803:53:03  +  00:04:54=41,708 
4949 GERSimon GeschkeDEUTeam Giant Alpecin03:53:03  +  00:04:54=41,708 
5050 AUTPatrick KonradDEUBora-Argon 1803:53:12  +  00:05:03=41,681 
5151 BELJan BakelantsFRAAg2r La Mondiale03:53:12  +  00:05:03=41,681 
5252 ITADiego RosaKAZAstana Pro Team03:53:14  +  00:05:05=41,675 
5353 ESPMikel Landa MeanaGBRSky Procycling03:53:07  +  00:04:58=41,696 
5454 POLRafal MajkaRUSTinkoff03:53:07  +  00:04:58=41,696 
5555 NEDTom-Jelte SlagterUSATeam Cannondale Drapac03:53:34  +  00:05:25=41,616 
5656 HRVRobert KiserlovskiRUSTinkoff03:53:39  +  00:05:30=41,601 
5757 SUISteve MorabitoFRAFDJ03:54:50  +  00:06:41=41,391 
5858 SLOJan PolancITALampre-Merida03:54:50  +  00:06:41=41,391 
5959 FRAThibaut PinotFRAFDJ03:54:50  +  00:06:41=41,391 
6060 NEDLaurens ten DamDEUTeam Giant Alpecin03:54:50  +  00:06:41=41,391 
6161 FRAAmaël MoinardUSABMC Racing Team03:54:50  +  00:06:41=41,391 
6262 FRAPierre-Luc PérichonFRAFortuneo - Vital Concept03:54:50  +  00:06:41=41,391 
6363 USALawson CraddockUSATeam Cannondale Drapac03:54:50  +  00:06:41=41,391 
6464 ESPRubén PlazaAUSORICA BikeExchange03:54:50  +  00:06:41=41,391 
6565 CANAntoine DuchesneFRADirect Energie03:54:50  +  00:06:41=41,391 
6666 FRABrice FeilluFRAFortuneo - Vital Concept03:53:57  +  00:05:48=41,547 
6767 FRASylvain ChavanelFRADirect Energie03:53:57  +  00:05:48=41,547 
6868 GERTony MartinBELEtixx - Quick Step03:53:57  +  00:05:48=41,547 
6969 BELSerge PauwelsZAFDimension Data03:54:32  +  00:06:23=41,444 
7070 AUTGeorg PreidlerDEUTeam Giant Alpecin03:55:44  +  00:07:35=41,233 
7171 FRAArnold JeannessonFRACofidis – Solutions Crédits03:55:44  +  00:07:35=41,233 
7272 FRAMickaël CherelFRAAg2r La Mondiale03:55:48  +  00:07:39=41,221 
7373 USAPeter StetinaUSATrek - Segafredo03:55:19  +  00:07:10=41,306 
7474 ENGAdam YatesAUSORICA BikeExchange03:51:39  +  00:03:30=41,960 
7575 FRARomain SicardFRADirect Energie03:57:02  +  00:08:53=41,007 
7676 DENMatti BreschelUSATeam Cannondale Drapac03:57:02  +  00:08:53=41,007 
7777 FRAAnthony DelaplaceFRAFortuneo - Vital Concept03:57:02  +  00:08:53=41,007 
7878 SUIMartin ElmigerCHEIAM Cycling03:57:02  +  00:08:53=41,007 
7979 ESPLuis León SánchezKAZAstana Pro Team03:57:08  +  00:08:59=40,990 
8080 GERPaul MartensNLDTeam Lotto NL - Jumbo03:57:16  +  00:09:07=40,967 
8181 ESPAlberto LosadaRUSTeam Katusha03:57:26  +  00:09:17=40,938 
8282 ESPÁngel ViciosoRUSTeam Katusha03:57:26  +  00:09:17=40,938 
8383 FRAJérôme CoppelCHEIAM Cycling03:58:38  +  00:10:29=40,732 
8484 BELOliver NaesenCHEIAM Cycling03:59:24  +  00:11:15=40,602 
8585 BELJürgen RoelandtsBELLotto Soudal03:59:24  +  00:11:15=40,602 
8686 CZEJan BártaDEUBora-Argon 1803:59:24  +  00:11:15=40,602 
8787 ETHTsgabu Gebremaryan GrmayITALampre-Merida03:59:24  +  00:11:15=40,602 
8888 SLOLuka PibernikITALampre-Merida04:00:58  +  00:12:49=40,338 
8989 BELJasper StuyvenUSATrek - Segafredo04:00:58  +  00:12:49=40,338 
9090 HRVKristijan DurasekITALampre-Merida04:00:58  +  00:12:49=40,338 
9191 ITAPaolo TiralongoKAZAstana Pro Team04:00:58  +  00:12:49=40,338 
9292 DENChris Anker SørensenFRAFortuneo - Vital Concept04:01:30  +  00:13:21=40,248 
9393 BELThomas De GendtBELLotto Soudal04:01:30  +  00:13:21=40,248 
9494 UKRAndriy GrivkoKAZAstana Pro Team04:01:30  +  00:13:21=40,248 
9595 DENMichael ValgrenRUSTinkoff04:01:30  +  00:13:21=40,248 
9696 NEDTom DumoulinDEUTeam Giant Alpecin04:01:30  +  00:13:21=40,248 
9797 FRANicolas EdetFRACofidis – Solutions Crédits04:01:30  +  00:13:21=40,248 
9898 ERINatnael Teweldemedhin BerhaneZAFDimension Data04:01:30  +  00:13:21=40,248 
9999 RSAReinardt Janse Van RensburgZAFDimension Data04:01:30  +  00:13:21=40,248 
100100 ESPMarkel IrizarUSATrek - Segafredo04:01:30  +  00:13:21=40,248 
101101 NEDDylan Van BaarleUSATeam Cannondale Drapac04:01:30  +  00:13:21=40,248 
102102 FRAAngelo TulikFRADirect Energie04:01:30  +  00:13:21=40,248 
103103 FRABryan CoquardFRADirect Energie04:01:30  +  00:13:21=40,248 
104104 ESPJon Izaguirre InsaustiESPMovistar Team04:01:30  +  00:13:21=40,248 
105105 FRAFlorian VachonFRAFortuneo - Vital Concept04:01:30  +  00:13:21=40,248 
106106 KAZAlexey LutsenkoKAZAstana Pro Team04:01:30  +  00:13:21=40,248 
107107 FRAArthur VichotFRAFDJ04:01:30  +  00:13:21=40,248 
108108 FRAMatthieu LadagnousFRAFDJ04:01:30  +  00:13:21=40,248 
109109 JPNYukiya ArashiroITALampre-Merida04:01:30  +  00:13:21=40,248 
110110 FRAJérémy RoyFRAFDJ04:01:30  +  00:13:21=40,248 
111111 GERMarcus BurghardtUSABMC Racing Team04:01:57  +  00:13:48=40,174 
112112 NEDSebastian LangeveldUSATeam Cannondale Drapac04:02:51  +  00:14:42=40,025 
113113 SUIFabian CancellaraUSATrek - Segafredo04:02:51  +  00:14:42=40,025 
114114 ITAMatteo BonoITALampre-Merida04:02:51  +  00:14:42=40,025 
115115 SLOBorut BozicFRACofidis – Solutions Crédits04:03:08  +  00:14:59=39,978 
116116 BELIljo KeisseBELEtixx - Quick Step04:05:34  +  00:17:25=39,582 
117117 ITAFabio SabatiniBELEtixx - Quick Step04:05:34  +  00:17:25=39,582 
118118 AUSAdam HansenBELLotto Soudal04:05:34  +  00:17:25=39,582 
119119 SUIReto HollensteinCHEIAM Cycling04:05:34  +  00:17:25=39,582 
120120 NEDRamon SinkeldamDEUTeam Giant Alpecin04:05:34  +  00:17:25=39,582 
121121 NEDRoy CurversDEUTeam Giant Alpecin04:05:34  +  00:17:25=39,582 
122122 ITACesare BenedettiDEUBora-Argon 1804:05:34  +  00:17:25=39,582 
123123 NEDBert-Jan LindemanNLDTeam Lotto NL - Jumbo04:05:34  +  00:17:25=39,582 
124124 AUSRohan DennisUSABMC Racing Team04:05:34  +  00:17:25=39,582 
125125 ITAJacopo GuarnieriRUSTeam Katusha04:05:34  +  00:17:25=39,582 
126126 GERRobert WagnerNLDTeam Lotto NL - Jumbo04:05:34  +  00:17:25=39,582 
127127 SUIGregory RastUSATrek - Segafredo04:05:34  +  00:17:25=39,582 
128128 SUIMichael SchärUSABMC Racing Team04:05:34  +  00:17:25=39,582 
129129 AUSSimon GerransAUSORICA BikeExchange04:05:34  +  00:17:25=39,582 
130130 AUSLuke DurbridgeAUSORICA BikeExchange04:05:34  +  00:17:25=39,582 
131131 NEDTimo RoosenNLDTeam Lotto NL - Jumbo04:05:34  +  00:17:25=39,582 
132132 NORAlexander KristoffRUSTeam Katusha04:05:34  +  00:17:25=39,582 
133133 USABrent BookwalterUSABMC Racing Team04:05:34  +  00:17:25=39,582 
134134 SLOKristjan KorenUSATeam Cannondale Drapac04:05:34  +  00:17:25=39,582 
135135 PORRui CostaITALampre-Merida04:05:34  +  00:17:25=39,582 
136136 NOREdvald Boasson HagenZAFDimension Data04:05:34  +  00:17:25=39,582 
137137 POLBartosz HuzarskiDEUBora-Argon 1804:05:34  +  00:17:25=39,582 
138138 FRAThomas VoecklerFRADirect Energie04:05:34  +  00:17:25=39,582 
139139 ERIDaniel TeklehaimanotZAFDimension Data04:05:34  +  00:17:25=39,582 
140140 NORSondre Holst EngerCHEIAM Cycling04:05:34  +  00:17:25=39,582 
141141 NORVegard BreenFRAFortuneo - Vital Concept04:05:34  +  00:17:25=39,582 
142142 FRA Alexis GougeardFRAAg2r La Mondiale04:05:34  +  00:17:25=39,582 
143143 LUXBen GastauerFRAAg2r La Mondiale04:05:34  +  00:17:25=39,582 
144144 FRACédric PineauFRAFDJ04:05:34  +  00:17:25=39,582 
145145 FRACyril GautierFRAAg2r La Mondiale04:05:34  +  00:17:25=39,582 
146146 FRASamuel DumoulinFRAAg2r La Mondiale04:05:34  +  00:17:25=39,582 
147147 COLWinner AnaconaESPMovistar Team04:05:34  +  00:17:25=39,582 
148148 FRAArmindo FonsecaFRAFortuneo - Vital Concept04:05:34  +  00:17:25=39,582 
149149 BELMaarten WynantsNLDTeam Lotto NL - Jumbo04:05:34  +  00:17:25=39,582 
150150 SUIMichael AlbasiniAUSORICA BikeExchange04:05:34  +  00:17:25=39,582 
151151 ITAMatteo TosattoRUSTinkoff04:05:34  +  00:17:25=39,582 
152152 URSRamunas NavardauskasUSATeam Cannondale Drapac04:05:34  +  00:17:25=39,582 
153153 IRLChristopher Juul JensenAUSORICA BikeExchange04:05:34  +  00:17:25=39,582 
154154 AUSMathew HaymanAUSORICA BikeExchange04:05:34  +  00:17:25=39,582 
155155 BELJulien VermoteBELEtixx - Quick Step04:05:34  +  00:17:25=39,582 
156156 WALLuke RoweGBRSky Procycling04:05:34  +  00:17:25=39,582 
157157 NEDAlbert TimmerDEUTeam Giant Alpecin04:05:34  +  00:17:25=39,582 
158158 GERJohn DegenkolbDEUTeam Giant Alpecin04:05:34  +  00:17:25=39,582 
159159 GERMarcel KittelBELEtixx - Quick Step04:05:34  +  00:17:25=39,582 
160160 FRAYohann GèneFRADirect Energie04:05:34  +  00:17:25=39,582 
161161 FRAJérôme CousinFRACofidis – Solutions Crédits04:05:34  +  00:17:25=39,582 
162162 FRAWilliam BonnetFRAFDJ04:05:34  +  00:17:25=39,582 
163163 FRATony GallopinBELLotto Soudal04:05:34  +  00:17:25=39,582 
164164 BLRVasil KiryienkaGBRSky Procycling04:05:34  +  00:17:25=39,582 
165165 ITADavide CimolaiITALampre-Merida04:05:34  +  00:17:25=39,582 
166166 GERAndreas SchillingerDEUBora-Argon 1804:05:34  +  00:17:25=39,582 
167167 FRAAnthony RouxFRAFDJ04:05:34  +  00:17:25=39,582 
168168 ESPJesus HerradaESPMovistar Team04:05:34  +  00:17:25=39,582 
169169 BELEdward TheunsUSATrek - Segafredo04:05:34  +  00:17:25=39,582 
170170 FRAAdrien PetitFRADirect Energie04:05:34  +  00:17:25=39,582 
171171 NZLGregory HendersonBELLotto Soudal04:05:34  +  00:17:25=39,582 
172172 AUSLeigh HowardCHEIAM Cycling04:05:34  +  00:17:25=39,582 
173173 NEDDylan GroenewegenNLDTeam Lotto NL - Jumbo04:05:34  +  00:17:25=39,582 
174174 CZEPetr VakocBELEtixx - Quick Step04:07:37  +  00:19:28=39,254 
175175 AUTBernhard EiselZAFDimension Data04:08:18  +  00:20:09=39,146 
176176 AUSMark RenshawZAFDimension Data04:08:18  +  00:20:09=39,146 
177177 GERMarcel SiebergBELLotto Soudal04:08:18  +  00:20:09=39,146 
178178 IOMMark CavendishZAFDimension Data04:08:18  +  00:20:09=39,146 
179179 BELJens DebusschereBELLotto Soudal04:08:18  +  00:20:09=39,146 
180180 GERAndré GreipelBELLotto Soudal04:08:18  +  00:20:09=39,146 
181181 AUSMichael MatthewsAUSORICA BikeExchange04:08:18  +  00:20:09=39,146 
182182 PORNelson OliveiraESPMovistar Team04:08:18  +  00:20:09=39,146 
183183 ESPImanol ErvitiESPMovistar Team04:08:18  +  00:20:09=39,146 
184184 SVKPeter SaganRUSTinkoff04:08:18  +  00:20:09=39,146 
185185 ITAOscar GattoRUSTinkoff04:08:18  +  00:20:09=39,146 
186186 BRAMaximilano RichezeBELEtixx - Quick Step04:08:18  +  00:20:09=39,146 
187187 BELSam BennettDEUBora-Argon 1804:08:18  +  00:20:09=39,146 
188188 AUTMarco HallerRUSTeam Katusha04:08:18  +  00:20:09=39,146 
189189 ENGIan StannardGBRSky Procycling04:08:18  +  00:20:09=39,146 
190190 ENGDaniel McLayFRAFortuneo - Vital Concept04:08:18  +  00:20:09=39,146 
191191 DENLars BakBELLotto Soudal04:08:18  +  00:20:09=39,146 
192192 NZLShane ArchboldDEUBora-Argon 1804:08:18  +  00:20:09=39,146 
193193 POLMaciej BodnarRUSTinkoff04:08:18  +  00:20:09=39,146 
194194 FRACyril LemoineFRACofidis – Solutions Crédits04:08:30  +  00:20:21=39,115 
195195 BELSep VanmarckeNLDTeam Lotto NL - Jumbo04:08:30  +  00:20:21=39,115 
196196 FRAGeoffrey SoupeFRACofidis – Solutions Crédits04:11:27  +  00:23:18=38,656 
197197 FRAChristophe LaporteFRACofidis – Solutions Crédits04:11:27  +  00:23:18=38,656 
198198 DENMichael MørkøvRUSTeam Katusha04:12:44  +  00:24:35=38,460 

Todays birthdays.

1878  Jean Novo
1883  Jules Chabas
1890  Ange Aubry
1893  Roger Marye
1913  Paul Maye
1914  Lucien Vlaemynck
1915  Alphonse Antoine
1932  Rolf Graf
1953  Julio Rubiano
1959  Jos Haex
1959  Gerard Veldscholten
1963  Pablo Moreno
1964  Juan Castillo
1977  Iban Mayo
1994  Fernando Gaviria